| time (UTC) | temp F | wind direction | speed knots | gust knots | rain 1hr in | rain 24hr in | rain mn in | humidity % | barometer mb |
| 20260505191957 | 54 | 13 | 1.7 | 2.6 | 0.09 | 0.30 | 0.43 | 76 | 1002.5 |
| 20260505191758 | 54 | 16 | 0.9 | 2.6 | 0.11 | 0.30 | 0.43 | 76 | 1002.5 |
| 20260505191657 | 54 | 19 | 0.9 | 2.6 | 0.11 | 0.30 | 0.43 | 76 | 1002.5 |
| 20260505191557 | 54 | 19 | 0.9 | 2.6 | 0.11 | 0.30 | 0.43 | 76 | 1002.6 |
| 20260505191457 | 54 | 15 | 1.7 | 2.6 | 0.11 | 0.30 | 0.43 | 76 | 1002.6 |
| 20260505191357 | 54 | 10 | 0.9 | 2.6 | 0.11 | 0.30 | 0.43 | 76 | 1002.6 |
| 20260505191258 | 54 | 10 | 1.7 | 2.6 | 0.11 | 0.30 | 0.43 | 76 | 1002.7 |
| 20260505191157 | 54 | 19 | 0.9 | 2.6 | 0.11 | 0.28 | 0.41 | 76 | 1002.6 |
| 20260505190957 | 54 | 48 | 1.7 | 3.5 | 0.11 | 0.28 | 0.41 | 76 | 1002.7 |
| 20260505190858 | 54 | 51 | 0.0 | 3.5 | 0.11 | 0.28 | 0.41 | 76 | 1002.7 |
| 20260505190757 | 54 | 42 | 0.0 | 3.5 | 0.11 | 0.28 | 0.41 | 76 | 1002.5 |
| 20260505190657 | 54 | 36 | 0.0 | 3.5 | 0.12 | 0.28 | 0.41 | 76 | 1002.7 |
| 20260505190558 | 54 | 39 | 0.9 | 3.5 | 0.11 | 0.27 | 0.40 | 76 | 1002.5 |
| 20260505190458 | 54 | 40 | 0.9 | 3.5 | 0.11 | 0.27 | 0.40 | 76 | 1002.7 |
| 20260505190358 | 54 | 34 | 0.9 | 3.5 | 0.11 | 0.27 | 0.40 | 76 | 1002.6 |
| 20260505190257 | 54 | 27 | 0.9 | 3.5 | 0.11 | 0.27 | 0.40 | 76 | 1002.6 |
| 20260505190057 | 54 | 21 | 1.7 | 2.6 | 0.09 | 0.26 | 0.39 | 76 | 1002.6 |
| 20260505185857 | 54 | 18 | 1.7 | 2.6 | 0.09 | 0.26 | 0.39 | 76 | 1002.7 |
| 20260505185657 | 54 | 36 | 0.9 | 3.5 | 0.09 | 0.26 | 0.39 | 76 | 1002.7 |
| 20260505185557 | 54 | 34 | 0.9 | 3.5 | 0.09 | 0.26 | 0.39 | 76 | 1002.5 |
| 20260505185357 | 54 | 44 | 1.7 | 3.5 | 0.09 | 0.26 | 0.39 | 76 | 1002.6 |
| 20260505185257 | 54 | 50 | 1.7 | 3.5 | 0.11 | 0.26 | 0.39 | 76 | 1002.6 |
| 20260505185057 | 54 | 41 | 1.7 | 3.5 | 0.11 | 0.26 | 0.39 | 75 | 1002.5 |
| 20260505184756 | 54 | 27 | 3.5 | 3.5 | 0.09 | 0.25 | 0.38 | 75 | 1002.5 |
| 20260505184557 | 54 | 5 | 0.9 | 3.5 | 0.09 | 0.25 | 0.38 | 75 | 1002.6 |
| 20260505184457 | 54 | 1 | 1.7 | 3.5 | 0.08 | 0.24 | 0.37 | 75 | 1002.6 |
| 20260505184357 | 54 | 356 | 1.7 | 3.5 | 0.09 | 0.24 | 0.37 | 75 | 1002.5 |
| 20260505184256 | 54 | 355 | 1.7 | 3.5 | 0.09 | 0.24 | 0.37 | 75 | 1002.5 |
| 20260505184157 | 54 | 347 | 1.7 | 3.5 | 0.09 | 0.24 | 0.37 | 75 | 1002.6 |
| 20260505184057 | 54 | 348 | 1.7 | 3.5 | 0.09 | 0.24 | 0.37 | 75 | 1002.5 |
| 20260505183957 | 54 | 349 | 1.7 | 3.5 | 0.09 | 0.24 | 0.37 | 75 | 1002.6 |
| 20260505183857 | 54 | 346 | 0.9 | 3.5 | 0.09 | 0.24 | 0.37 | 75 | 1002.4 |
| 20260505183656 | 54 | 336 | 0.9 | 3.5 | 0.09 | 0.24 | 0.37 | 75 | 1002.5 |
| 20260505183556 | 54 | 342 | 0.0 | 3.5 | 0.09 | 0.24 | 0.37 | 75 | 1002.4 |
| 20260505183357 | 54 | 337 | 0.9 | 3.5 | 0.08 | 0.22 | 0.35 | 75 | 1002.5 |
| 20260505183156 | 54 | 317 | 0.9 | 3.5 | 0.08 | 0.22 | 0.35 | 75 | 1002.5 |
| 20260505183057 | 54 | 331 | 1.7 | 4.3 | 0.08 | 0.22 | 0.35 | 75 | 1002.4 |
| 20260505182957 | 54 | 321 | 1.7 | 4.3 | 0.08 | 0.22 | 0.35 | 75 | 1002.4 |
| 20260505182857 | 54 | 309 | 1.7 | 4.3 | 0.07 | 0.21 | 0.34 | 75 | 1002.4 |
| 20260505182756 | 54 | 309 | 1.7 | 4.3 | 0.07 | 0.21 | 0.34 | 75 | 1002.4 |
| 20260505182658 | 54 | 302 | 1.7 | 4.3 | 0.07 | 0.21 | 0.34 | 75 | 1002.5 |
| 20260505182556 | 54 | 293 | 0.9 | 4.3 | 0.07 | 0.21 | 0.34 | 75 | 1002.4 |
| 20260505182456 | 54 | 298 | 0.9 | 4.3 | 0.07 | 0.21 | 0.34 | 75 | 1002.4 |
| 20260505182357 | 54 | 347 | 1.7 | 4.3 | 0.07 | 0.21 | 0.34 | 75 | 1002.5 |
| 20260505182257 | 54 | 1 | 1.7 | 4.3 | 0.07 | 0.21 | 0.34 | 75 | 1002.3 |
| 20260505182157 | 54 | 13 | 1.7 | 4.3 | 0.06 | 0.20 | 0.33 | 75 | 1002.4 |
| 20260505182057 | 54 | 359 | 1.7 | 3.5 | 0.06 | 0.20 | 0.33 | 75 | 1002.6 |
| 20260505181856 | 54 | 35 | 0.0 | 1.7 | 0.07 | 0.20 | 0.33 | 75 | 1002.5 |
| 20260505181756 | 54 | 36 | 0.0 | 1.7 | 0.06 | 0.19 | 0.32 | 75 | 1002.5 |
| 20260505181558 | 54 | 50 | 0.0 | 1.7 | 0.06 | 0.19 | 0.32 | 75 | 1002.5 |
| 20260505181456 | 54 | 60 | 0.9 | 1.7 | 0.06 | 0.19 | 0.32 | 75 | 1002.3 |
| 20260505181356 | 54 | 71 | 0.0 | 1.7 | 0.06 | 0.19 | 0.32 | 75 | 1002.4 |
| 20260505181256 | 54 | 82 | 0.0 | 1.7 | 0.05 | 0.18 | 0.31 | 75 | 1002.4 |
| 20260505181156 | 54 | 90 | 0.9 | 1.7 | 0.05 | 0.18 | 0.31 | 75 | 1002.4 |
| 20260505181057 | 54 | 102 | 0.9 | 1.7 | 0.05 | 0.18 | 0.31 | 75 | 1002.4 |
| 20260505180956 | 54 | 111 | 1.7 | 1.7 | 0.05 | 0.18 | 0.31 | 75 | 1002.4 |
| 20260505180856 | 54 | 118 | 0.9 | 1.7 | 0.05 | 0.18 | 0.31 | 75 | 1002.5 |
| 20260505180656 | 54 | 133 | 0.9 | 1.7 | 0.04 | 0.17 | 0.30 | 75 | 1002.4 |
| 20260505180556 | 54 | 130 | 0.9 | 1.7 | 0.04 | 0.17 | 0.30 | 72 | 1002.5 |
| 20260505180456 | 54 | 120 | 0.9 | 1.7 | 0.04 | 0.17 | 0.30 | 72 | 1002.3 |
| 20260505180356 | 54 | 108 | 0.9 | 1.7 | 0.04 | 0.17 | 0.30 | 72 | 1002.5 |
| 20260505180157 | 54 | 53 | 0.9 | 3.5 | 0.04 | 0.17 | 0.30 | 72 | 1002.4 |
| 20260505180056 | 54 | 27 | 0.9 | 3.5 | 0.04 | 0.17 | 0.30 | 72 | 1002.4 |
| 20260505175956 | 54 | 22 | 0.9 | 3.5 | 0.04 | 0.17 | 0.30 | 72 | 1002.3 |
| 20260505175856 | 54 | 21 | 0.9 | 3.5 | 0.04 | 0.17 | 0.30 | 72 | 1002.3 |
| 20260505175556 | 54 | 28 | 0.9 | 3.5 | 0.05 | 0.17 | 0.30 | 72 | 1002.3 |
| 20260505175456 | 54 | 22 | 0.9 | 3.5 | 0.05 | 0.17 | 0.30 | 72 | 1002.4 |
| 20260505175356 | 54 | 15 | 0.9 | 3.5 | 0.04 | 0.15 | 0.28 | 72 | 1002.3 |
| 20260505175256 | 54 | 8 | 3.5 | 3.5 | 0.04 | 0.15 | 0.28 | 72 | 1002.3 |
| 20260505175056 | 54 | 22 | 0.9 | 2.6 | 0.04 | 0.15 | 0.28 | 72 | 1002.3 |
| 20260505174956 | 54 | 22 | 1.7 | 2.6 | 0.04 | 0.15 | 0.28 | 72 | 1002.5 |
| 20260505174756 | 55 | 16 | 1.7 | 2.6 | 0.05 | 0.15 | 0.28 | 72 | 1002.4 |
| 20260505174656 | 55 | 8 | 0.9 | 2.6 | 0.05 | 0.15 | 0.28 | 72 | 1002.4 |
| 20260505174556 | 55 | 11 | 0.9 | 2.6 | 0.05 | 0.15 | 0.28 | 72 | 1002.6 |
| 20260505174456 | 55 | 18 | 1.7 | 2.6 | 0.04 | 0.14 | 0.27 | 72 | 1002.4 |
| 20260505174256 | 55 | 43 | 1.7 | 2.6 | 0.05 | 0.14 | 0.27 | 72 | 1002.4 |
| 20260505174157 | 55 | 44 | 0.9 | 1.7 | 0.05 | 0.14 | 0.27 | 72 | 1002.4 |
| 20260505174056 | 55 | 54 | 1.7 | 1.7 | 0.05 | 0.14 | 0.27 | 72 | 1002.3 |
| 20260505173956 | 55 | 51 | 1.7 | 1.7 | 0.14 | 0.14 | 0.27 | 72 | 1002.5 |
| 20260505173856 | 55 | 47 | 1.7 | 1.7 | 0.14 | 0.14 | 0.27 | 72 | 1002.3 |
| 20260505173756 | 55 | 47 | 0.9 | 1.7 | 0.14 | 0.14 | 0.27 | 72 | 1002.3 |
| 20260505173656 | 55 | 52 | 0.9 | 1.7 | 0.14 | 0.14 | 0.27 | 71 | 1002.5 |
| 20260505173556 | 55 | 36 | 0.9 | 2.6 | 0.14 | 0.14 | 0.27 | 71 | 1002.4 |
| 20260505173456 | 55 | 35 | 0.9 | 2.6 | 0.14 | 0.14 | 0.27 | 71 | 1002.5 |
| 20260505173356 | 55 | 26 | 1.7 | 2.6 | 0.14 | 0.14 | 0.27 | 71 | 1002.4 |
| 20260505173256 | 55 | 21 | 0.9 | 2.6 | 0.14 | 0.14 | 0.27 | 71 | 1002.4 |
| 20260505173156 | 55 | 17 | 1.7 | 2.6 | 0.14 | 0.14 | 0.27 | 71 | 1002.3 |
| 20260505172956 | 55 | 9 | 0.9 | 2.6 | 0.14 | 0.14 | 0.27 | 71 | 1002.5 |
| 20260505172857 | 55 | 10 | 0.9 | 2.6 | 0.14 | 0.14 | 0.27 | 71 | 1002.4 |
| 20260505172756 | 55 | 8 | 0.0 | 2.6 | 0.14 | 0.14 | 0.27 | 71 | 1002.4 |
| 20260505172656 | 55 | 9 | 1.7 | 2.6 | 0.14 | 0.14 | 0.27 | 71 | 1002.5 |
| 20260505172556 | 55 | 11 | 1.7 | 2.6 | 0.14 | 0.14 | 0.27 | 71 | 1002.4 |
| 20260505172357 | 55 | 12 | 0.0 | 2.6 | 0.14 | 0.14 | 0.27 | 71 | 1002.6 |
| 20260505172256 | 55 | 18 | 0.0 | 2.6 | 0.14 | 0.14 | 0.27 | 71 | 1002.4 |
| 20260505172056 | 55 | 18 | 0.0 | 2.6 | 0.13 | 0.13 | 0.26 | 71 | 1002.5 |
| 20260505171956 | 55 | 18 | 0.0 | 2.6 | 0.13 | 0.13 | 0.26 | 71 | 1002.4 |
| 20260505171856 | 55 | 18 | 0.0 | 2.6 | 0.13 | 0.13 | 0.26 | 71 | 1002.5 |
| 20260505171756 | 55 | 17 | 0.9 | 2.6 | 0.13 | 0.13 | 0.26 | 71 | 1002.5 |
| 20260505171656 | 55 | 21 | 1.7 | 2.6 | 0.13 | 0.13 | 0.26 | 71 | 1002.4 |
| 20260505171556 | 55 | 32 | 1.7 | 1.7 | 0.13 | 0.13 | 0.26 | 71 | 1002.6 |
| 20260505171456 | 55 | 41 | 0.9 | 1.7 | 0.13 | 0.13 | 0.26 | 71 | 1002.5 |
| 20260505171356 | 55 | 38 | 1.7 | 1.7 | 0.13 | 0.13 | 0.26 | 71 | 1002.5 |
| 20260505171256 | 55 | 26 | 0.0 | 0.9 | 0.13 | 0.13 | 0.26 | 71 | 1002.5 |
| 20260505171156 | 55 | 33 | 0.0 | 1.7 | 0.13 | 0.13 | 0.26 | 71 | 1002.6 |
| 20260505171056 | 55 | 37 | 0.0 | 1.7 | 0.13 | 0.13 | 0.26 | 71 | 1002.4 |
| 20260505170956 | 55 | 40 | 0.0 | 1.7 | 0.13 | 0.13 | 0.26 | 71 | 1002.6 |
| 20260505170856 | 55 | 41 | 0.0 | 1.7 | 0.13 | 0.13 | 0.26 | 71 | 1002.5 |
| 20260505170755 | 55 | 39 | 0.9 | 1.7 | 0.13 | 0.13 | 0.26 | 71 | 1002.4 |
| 20260505170656 | 55 | 36 | 0.0 | 1.7 | 0.13 | 0.13 | 0.26 | 71 | 1002.6 |
| 20260505170556 | 55 | 33 | 0.0 | 1.7 | 0.13 | 0.13 | 0.26 | 71 | 1002.5 |
| 20260505170456 | 55 | 33 | 0.0 | 1.7 | 0.13 | 0.13 | 0.26 | 71 | 1002.5 |
| 20260505170356 | 55 | 32 | 0.0 | 1.7 | 0.13 | 0.13 | 0.26 | 71 | 1002.5 |
| 20260505170255 | 55 | 28 | 0.9 | 1.7 | 0.13 | 0.13 | 0.26 | 71 | 1002.4 |
| 20260505170156 | 55 | 27 | 0.9 | 1.7 | 0.13 | 0.13 | 0.26 | 71 | 1002.4 |
| 20260505170057 | 55 | 23 | 1.7 | 1.7 | 0.13 | 0.13 | 0.26 | 71 | 1002.4 |
| 20260505165856 | 55 | 30 | 0.0 | 1.7 | 0.13 | 0.13 | 0.26 | 71 | 1002.4 |
| 20260505165756 | 55 | 34 | 0.0 | 1.7 | 0.13 | 0.13 | 0.26 | 71 | 1002.5 |
| 20260505165657 | 55 | 36 | 0.0 | 1.7 | 0.13 | 0.13 | 0.26 | 71 | 1002.5 |
| 20260505165456 | 55 | 36 | 0.0 | 1.7 | 0.12 | 0.12 | 0.25 | 71 | 1002.5 |
| 20260505165255 | 55 | 40 | 0.9 | 1.7 | 0.12 | 0.12 | 0.25 | 71 | 1002.6 |
| 20260505165156 | 55 | 38 | 0.9 | 1.7 | 0.12 | 0.12 | 0.25 | 71 | 1002.5 |
| 20260505165056 | 55 | 39 | 0.9 | 1.7 | 0.12 | 0.12 | 0.25 | 71 | 1002.6 |
| 20260505164956 | 55 | 34 | 0.9 | 1.7 | 0.11 | 0.11 | 0.24 | 71 | 1002.5 |
| 20260505164857 | 55 | 30 | 0.9 | 1.7 | 0.11 | 0.11 | 0.24 | 71 | 1002.5 |
| 20260505164656 | 55 | 23 | 0.0 | 1.7 | 0.11 | 0.11 | 0.24 | 71 | 1002.5 |
| 20260505164556 | 55 | 25 | 0.9 | 1.7 | 0.11 | 0.11 | 0.24 | 71 | 1002.5 |
| 20260505164455 | 55 | 21 | 0.9 | 1.7 | 0.09 | 0.09 | 0.22 | 71 | 1002.5 |
| 20260505164356 | 55 | 1 | 0.0 | 0.9 | 0.09 | 0.09 | 0.22 | 71 | 1002.5 |
| 20260505164256 | 55 | 1 | 0.0 | 0.9 | 0.09 | 0.09 | 0.22 | 71 | 1002.5 |
| 20260505164157 | 55 | 1 | 0.0 | 0.9 | 0.09 | 0.09 | 0.22 | 70 | 1002.5 |
| 20260505164039 | 58 | 0 | 0.0 | 0.0 | 0.00 | 0.00 | 0.13 | 63 | 1007.3 |